Bradshaw AFB, HI

6:06 PM HST on August 21, 2017 (GMT -1000)
Bradshaw Army Air Field

Weather History for PHSF - February, 2014

Change the Weather History Date:

Thursday, February 27, 2014

  Actual Average Record
Temperature  
Mean Temperature 51 °F -  
Max Temperature 63 °F 64 °F 73 °F (2004)
Min Temperature 39 °F 42 °F 28 °F (2009)
Degree Days  
Heating Degree Days 14    
Growing Degree Days 1 (Base 50)    
Moisture  
Dew Point 43 °F    
Average Humidity 71    
Maximum Humidity 94    
Minimum Humidity 34    
Precipitation  
Precipitation 0.00 in - - ()
Sea Level Pressure  
Sea Level Pressure 30.08 in    
Wind  
Wind Speed 6 mph (West)    
Max Wind Speed 14 mph    
Max Gust Speed 20 mph    
Visibility 9 miles    
Events      
Averages and records for this station are not official NWS values.
T = Trace of Precipitation, MM = Missing Value Source: NWS Daily Summary

Daily Weather History Graph

Daily Weather History Graph

Search for Another Location

Airport or City:

Trip Planner

Search our weather history database for the weather conditions in past years. The results will help you decide how hot, cold, wet, or windy it might be!

Date:

Astronomy

Feb. 27, 2014 Rise Set
Actual Time 6:43 AM HST 6:26 PM HST
Civil Twilight 6:21 AM HST 6:48 PM HST
Nautical Twilight 5:55 AM HST 7:14 PM HST
Astronomical Twilight 5:29 AM HST 7:40 PM HST
Moon 5:15 AM HST (2/27) 5:10 PM HST (2/27)
Length of Visible Light 12h 27m
Length of Day
11h 43m
Waning Crescent, 3% of the Moon is Illuminated
Feb 27
Waning Crescent
Feb 28
New
Mar 8
First Quarter
Mar 16
Full
Mar 23
Last Quarter

Hourly Weather History & Observations

Time (HST) Temp. Windchill Dew Point Humidity Pressure Visibility Wind Dir Wind Speed Gust Speed Precip Events Conditions
12:56 AM 42.3 °F 38.6 °F 15.8 °F 34% 29.96 in 12.0 mi ESE 5.8 mph - N/A   Clear
1:56 AM 39.2 °F 33.6 °F 16.5 °F 40% 29.96 in 12.0 mi SSE 8.1 mph - N/A   Clear
2:56 AM 41.5 °F 37.1 °F 19.4 °F 41% 29.94 in 12.0 mi ESE 6.9 mph - N/A   Clear
3:56 AM 39.9 °F 35.1 °F 19.9 °F 45% 29.94 in 12.0 mi ESE 6.9 mph - N/A   Clear
4:56 AM 42.3 °F 37.9 °F 33.1 °F 70% 29.94 in 12.0 mi ESE 6.9 mph - N/A   Clear
5:56 AM 42.8 °F 39.3 °F 36.9 °F 80% 29.96 in 12.0 mi ESE 5.8 mph - N/A   Clear
6:56 AM 39.9 °F 36.7 °F 21.0 °F 47% 30.02 in 12.0 mi ESE 4.6 mph - N/A   Clear
7:56 AM 50.9 °F - 43.2 °F 75% 30.00 in 7.0 mi ESE 4.6 mph - N/A   Clear
8:56 AM 56.5 °F - 46.6 °F 69% 29.99 in 12.0 mi South 6.9 mph - N/A   Clear
9:56 AM 59.2 °F - 45.0 °F 59% 30.01 in 12.0 mi South 13.8 mph 19.6 mph N/A   Clear
10:09 AM 60.8 °F - 44.6 °F 55% 30.29 in 12.0 mi SSW 11.5 mph 18.4 mph N/A   Clear
10:56 AM 61.0 °F - 45.9 °F 58% 30.01 in 12.0 mi South 8.1 mph 16.1 mph N/A   Clear
11:56 AM 63.9 °F - 41.9 °F 45% 29.99 in 12.0 mi South 8.1 mph 16.1 mph N/A   Partly Cloudy
12:56 PM 63.9 °F - 48.2 °F 57% 29.96 in 12.0 mi WSW 8.1 mph 19.6 mph N/A   Partly Cloudy
1:56 PM 63.9 °F - 47.5 °F 55% 29.94 in 12.0 mi West 10.4 mph 16.1 mph N/A   Clear
2:56 PM 60.4 °F - 48.6 °F 65% 29.94 in 12.0 mi WSW 12.7 mph 19.6 mph N/A   Mostly Cloudy
3:56 PM 60.3 °F - 48.6 °F 65% 29.95 in 12.0 mi West 9.2 mph 15.0 mph N/A   Mostly Cloudy
4:16 PM 59.0 °F - 50.0 °F 72% 30.23 in 12.0 mi West 9.2 mph 16.1 mph N/A   Mostly Cloudy
4:21 PM 59.0 °F - 48.2 °F 67% 30.23 in 11.0 mi West 8.1 mph - N/A   Mostly Cloudy
4:56 PM 59.2 °F - 49.6 °F 71% 29.96 in 10.0 mi WSW 8.1 mph - N/A   Mostly Cloudy
5:56 PM 56.1 °F - 49.8 °F 79% 29.98 in 10.0 mi WSW 4.6 mph - N/A   Clear
6:56 PM 51.8 °F - 50.2 °F 94% 30.01 in 4.0 mi West 5.8 mph - N/A   Clear
7:21 PM 51.8 °F - 50.0 °F 94% 30.26 in 3.0 mi West 2.3 mph - N/A   Mostly Cloudy
7:26 PM 51.8 °F - 50.0 °F 94% 30.26 in 4.0 mi West 2.3 mph - N/A   Mostly Cloudy
7:56 PM 51.6 °F - 49.8 °F 94% 29.99 in 4.0 mi WNW 1.2 mph - N/A   Scattered Clouds
8:36 PM 51.8 °F - 48.2 °F 88% 30.29 in 7.0 mi North 1.2 mph - N/A   Mostly Cloudy
8:46 PM 51.8 °F - 48.2 °F 88% 30.29 in 6.0 mi Calm Calm - N/A   Mostly Cloudy
8:56 PM 52.3 °F - 48.0 °F 85% 29.99 in 6.0 mi NW 2.3 mph - N/A   Mostly Cloudy
9:06 PM 51.8 °F - 48.2 °F 88% 30.29 in 6.0 mi NNE 2.3 mph - N/A   Mostly Cloudy
9:11 PM 51.8 °F - 48.2 °F 88% 30.29 in 6.0 mi NNE 3.5 mph - N/A   Mostly Cloudy
9:16 PM 51.8 °F - 46.4 °F 82% 30.29 in 6.0 mi North 5.8 mph - N/A   Scattered Clouds
9:46 PM 50.0 °F - 44.6 °F 82% 30.30 in 7.0 mi North 1.2 mph - N/A   Mostly Cloudy
9:51 PM 50.0 °F - 46.4 °F 87% 30.30 in 8.0 mi NW 2.3 mph - N/A   Mostly Cloudy
9:56 PM 51.1 °F - 46.8 °F 85% 29.98 in 7.0 mi NW 2.3 mph - N/A   Mostly Cloudy
10:11 PM 50.0 °F - 46.4 °F 87% 30.30 in 7.0 mi North 2.3 mph - N/A   Scattered Clouds
10:56 PM 48.2 °F - 40.6 °F 75% 29.99 in 9.0 mi North 3.5 mph - N/A   Clear
11:56 PM 47.7 °F - 43.2 °F 84% 29.97 in 6.0 mi North 5.8 mph - N/A   Clear